Wind_Speed
6 8 9 9 9 9 9 8 8 8 6 6 5 3 1 1 1 3 2 1 0 2 4 3 3 3 3 3 6 8 8 8 9 9 8 7 6 4 4 5 7 9 11 14 17 16 14 15 17 19 19 17 17 16 15 14 14 13 10 10 12 13 13 14 16 19 19 19 20 20 20 20 21 22 22 21 20 18 17 17 17 16 15 14 14 13
7 10 12 11 9 9 9 10 10 10 9 8 7 6 4 4 3 1 1 2 2 2 3 3 2 1 1 4 7 8 8 9 10 9 8 7 5 4 4 5 6 8 10 13 16 16 16 16 15 16 20 20 19 18 18 18 17 16 13 12 14 13 12 12 15 18 17 17 19 19 19 19 20 22 22 20 19 18 17 16 15 14 14 14 13 12
6 8 8 6 6 7 8 9 9 8 8 8 7 7 6 5 5 4 3 3 4 2 3 4 3 1 1 5 7 8 10 11 11 11 11 9 7 6 6 6 8 10 11 12 14 15 16 17 15 12 16 20 21 21 22 22 20 19 17 14 14 13 12 12 14 16 16 16 17 18 18 19 19 20 21 21 20 19 17 16 14 13 13 13 12 11
5 8 6 4 4 4 4 6 7 6 7 7 6 5 5 4 5 6 6 6 6 3 3 6 5 2 1 4 6 9 11 12 12 13 13 12 9 8 8 8 9 11 12 13 14 14 14 14 14 12 11 13 14 16 18 18 17 15 14 12 13 13 13 12 13 14 14 15 16 16 17 18 19 19 20 20 20 19 17 16 15 13 12 12 11 11
7 10 8 6 4 1 1 6 8 5 6 6 6 4 2 2 5 8 7 7 9 5 4 7 4 1 2 4 6 8 10 12 14 14 13 11 10 9 8 8 9 11 12 11 12 12 13 13 13 11 9 7 6 7 10 10 9 8 9 10 13 14 13 12 11 11 12 14 15 15 16 17 18 18 18 18 18 18 16 15 14 13 12 12 11 11
9 9 7 5 3 0 2 8 8 3 3 5 6 5 2 1 3 8 7 7 11 8 8 8 2 0 1 3 5 7 9 11 14 15 13 11 9 8 8 8 8 9 9 9 10 11 11 11 9 6 5 4 3 3 4 5 6 8 8 10 12 14 14 13 9 8 10 12 15 14 14 16 16 16 18 18 18 18 17 14 13 12 12 11 11 10
8 5 3 1 1 2 6 8 5 1 3 4 4 5 3 3 2 4 8 9 11 9 10 9 2 2 1 3 5 6 8 9 13 15 15 12 10 8 9 9 8 8 7 8 10 10 8 7 5 4 4 5 4 5 5 6 7 7 9 10 11 13 14 12 9 8 9 11 14 15 13 15 15 16 18 18 18 18 17 15 13 11 11 11 11 10
6 4 2 1 1 2 4 5 2 1 2 1 3 4 2 2 3 1 6 9 8 6 10 11 4 1 2 1 3 5 6 8 11 14 15 14 12 10 9 9 8 7 7 8 10 9 6 4 4 4 4 5 6 8 7 7 7 7 8 10 11 12 12 10 9 10 10 10 14 16 13 14 14 15 17 18 18 18 17 16 14 11 10 10 10 10
6 5 4 2 1 2 3 3 1 2 2 1 1 1 0 2 1 1 5 7 6 5 10 13 5 1 4 3 2 3 5 7 9 12 14 14 14 12 10 9 8 7 7 8 10 9 6 3 2 2 3 6 9 10 9 7 7 7 7 9 10 10 9 8 8 10 10 10 13 15 13 13 13 14 17 18 18 18 17 16 14 13 11 10 9 10
7 6 5 4 3 3 4 3 1 1 0 1 1 1 2 2 0 2 5 8 6 4 6 11 9 2 3 4 1 2 4 6 8 11 12 13 15 14 12 11 10 9 9 9 10 9 6 4 2 2 5 9 12 12 8 6 6 7 7 8 9 8 8 8 8 9 10 11 12 13 13 13 13 14 16 18 18 18 17 16 14 13 12 11 9 9
7 7 4 4 5 6 5 3 2 3 2 0 1 2 0 2 3 4 6 8 5 1 2 7 10 5 3 3 2 0 3 5 7 10 11 12 14 15 14 13 12 12 13 13 12 10 7 5 4 6 8 10 13 11 7 6 8 8 7 7 7 7 8 8 8 8 9 10 10 11 12 13 13 14 16 18 18 18 17 16 14 13 12 12 11 10
7 7 6 4 4 4 4 4 3 3 1 1 2 3 2 5 5 4 5 7 3 2 2 4 9 7 4 3 2 2 2 4 7 9 10 12 14 14 15 15 14 15 17 17 15 11 8 6 6 9 10 11 12 9 6 7 9 8 7 6 6 6 7 8 8 7 7 9 9 10 12 14 14 14 15 18 18 18 17 16 15 14 13 12 11 10
6 7 7 6 4 5 4 4 3 0 2 4 5 6 4 3 2 1 1 2 1 1 1 5 6 5 5 5 4 3 3 3 7 8 8 11 13 14 16 16 16 17 17 19 17 13 9 8 9 11 12 13 12 9 7 8 10 10 9 8 7 7 7 6 6 5 6 8 10 11 12 14 15 15 15 18 19 18 18 16 15 15 14 14 12 11
4 6 6 5 4 3 4 4 3 2 3 4 6 8 6 2 3 1 2 2 3 2 5 6 3 4 5 6 5 4 3 4 7 7 7 9 11 14 16 16 17 17 17 19 18 13 10 9 10 12 13 13 13 10 9 9 10 11 11 12 11 9 7 6 6 7 8 10 11 12 13 14 16 16 15 17 18 18 18 17 16 15 15 15 14 12
1 4 5 5 5 3 2 1 2 2 3 2 3 6 7 4 2 2 3 1 2 2 6 6 3 3 4 4 5 5 5 5 7 6 7 9 11 14 15 15 16 17 17 19 18 13 10 10 11 12 13 13 12 11 9 9 10 11 12 13 12 10 8 7 7 9 10 11 11 12 13 14 16 16 15 17 18 18 18 17 16 16 15 15 15 14
3 4 4 5 6 5 4 3 3 4 4 2 1 2 3 3 2 3 2 1 2 2 3 6 5 7 8 6 6 6 6 5 6 7 6 8 11 14 15 15 16 17 17 18 16 12 10 10 10 11 12 12 11 10 9 9 10 11 11 11 10 10 9 7 6 7 7 8 9 11 13 14 16 17 15 17 19 18 18 18 17 17 16 15 15 15
4 5 4 3 4 5 4 5 6 5 2 2 1 1 2 2 2 3 3 2 3 2 2 5 6 9 9 7 8 7 5 5 5 6 6 8 11 13 14 15 16 16 16 15 13 11 9 9 9 9 10 10 9 9 9 10 10 10 10 10 9 9 8 7 6 6 6 6 8 10 12 14 16 16 15 16 18 18 17 18 18 18 17 16 16 15
4 6 6 4 1 1 1 4 7 5 1 2 2 2 2 0 1 2 2 3 3 0 3 5 6 8 7 5 7 7 5 5 6 6 7 9 11 13 13 14 14 15 14 13 11 10 8 7 7 8 9 9 8 8 9 10 10 10 10 10 10 9 8 8 7 7 6 7 8 9 11 14 15 16 15 15 17 17 17 18 18 19 19 18 17 16
5 5 6 5 2 2 2 3 7 5 1 1 1 3 2 3 2 3 2 1 1 0 2 4 7 10 12 11 9 8 6 6 6 7 7 9 12 13 13 13 13 14 14 11 9 9 8 7 7 7 8 8 7 6 8 11 11 10 10 10 10 9 8 8 9 9 8 8 9 11 12 14 15 15 14 14 16 17 16 17 18 19 20 19 18 17
7 5 5 5 4 3 3 3 5 5 1 1 1 2 4 4 3 3 3 2 2 2 1 3 4 7 12 13 11 9 8 6 6 7 7 9 12 13 12 12 13 13 12 9 8 8 8 8 7 7 7 8 7 6 7 10 10 10 10 10 10 10 9 9 10 10 11 11 11 12 14 15 16 16 14 14 16 16 16 17 18 18 19 20 19 19
6 5 5 5 4 4 3 2 4 6 3 0 1 2 2 3 3 3 5 4 2 2 2 1 3 7 9 9 10 10 8 7 7 7 7 9 12 13 13 12 13 13 10 8 7 7 7 7 7 7 7 7 7 8 8 9 9 10 10 10 10 10 10 10 10 11 12 12 13 13 14 15 16 16 14 14 16 16 16 17 17 18 19 19 19 19
5 5 5 5 4 5 3 0 2 4 4 2 1 2 2 3 4 2 3 5 5 3 3 2 4 9 9 8 9 9 7 6 7 7 8 10 12 13 13 12 13 12 9 7 7 7 7 8 8 9 9 8 8 8 9 9 9 9 9 10 10 10 10 11 11 11 12 12 13 14 14 16 16 15 14 14 16 16 17 17 17 17 18 19 19 18
5 5 5 5 5 4 3 2 1 1 1 1 3 5 6 6 5 3 3 4 4 5 4 2 3 7 7 7 7 7 6 7 8 8 9 11 12 12 13 13 12 11 8 8 8 7 8 9 9 10 10 10 10 9 9 9 8 9 10 11 11 11 11 11 11 11 12 12 13 14 15 16 16 15 14 15 15 16 17 17 17 17 18 18 18 17
6 6 6 6 5 5 5 5 5 4 3 3 5 8 8 7 6 5 6 6 4 5 5 2 2 5 6 7 7 7 8 9 8 9 10 11 11 11 13 12 11 9 7 8 9 9 10 11 11 12 11 11 11 11 10 9 9 10 11 12 12 12 12 12 12 12 12 13 14 14 15 16 16 15 15 15 15 16 17 17 18 17 17 17 17 17
6 7 7 6 3 3 5 5 6 5 4 5 7 8 8 7 6 4 5 5 5 6 6 4 4 7 8 10 10 9 10 9 9 9 10 11 9 10 11 10 9 8 7 8 10 10 12 13 15 15 14 12 12 12 11 11 10 11 12 12 13 13 12 12 13 13 13 14 15 15 16 16 15 15 15 15 15 15 16 17 18 17 17 16 17 16
7 7 9 7 3 2 4 4 4 4 4 5 6 7 7 6 4 2 3 5 4 5 7 6 8 11 12 12 11 10 9 8 8 9 9 8 8 9 9 8 8 7 8 8 9 10 12 13 15 18 17 13 12 13 13 12 12 12 13 13 13 13 13 13 13 13 14 14 15 15 15 15 15 15 15 15 15 15 16 17 17 17 16 16 16 16
8 7 8 10 9 7 6 6 5 5 5 4 5 6 6 4 3 2 3 4 4 6 8 8 10 13 11 9 10 8 6 6 6 7 7 6 6 7 8 8 8 8 8 9 9 10 12 13 14 17 17 14 12 12 12 13 12 13 13 14 14 13 13 13 14 14 14 14 14 15 15 15 15 16 16 15 15 15 16 17 17 17 16 16 16 16
7 8 8 9 10 9 8 7 7 7 7 5 4 5 6 5 4 4 4 5 6 7 8 7 10 12 9 8 8 6 4 4 5 5 6 5 5 6 7 8 9 10 10 11 12 13 14 14 15 16 17 15 13 12 12 12 11 12 13 13 13 14 14 14 14 14 14 14 13 14 14 15 15 16 16 16 15 15 16 16 17 17 17 17 16 16
4 7 8 9 9 9 9 8 8 8 7 7 7 6 7 7 7 7 7 9 9 9 9 10 12 11 9 8 7 5 4 4 4 5 5 4 5 6 7 8 10 11 12 12 13 14 15 15 16 16 16 16 14 11 10 10 10 11 12 12 13 14 15 15 14 14 14 13 13 13 14 15 15 16 16 16 15 16 16 16 16 16 17 17 17 17
3 5 7 8 8 8 9 9 9 9 10 10 9 9 10 10 10 11 11 11 12 12 11 12 13 11 8 7 6 5 4 4 4 5 5 5 5 6 7 9 10 11 12 12 13 14 14 15 16 16 16 15 13 11 9 8 9 10 11 12 12 14 14 14 14 15 15 14 14 14 15 15 16 16 16 16 15 16 16 16 16 16 17 17 18 18
4 4 5 6 7 8 8 9 10 10 11 11 11 11 13 13 13 13 12 11 12 12 11 13 14 11 8 7 7 5 5 5 4 4 5 5 6 7 8 9 10 10 11 11 12 13 13 14 15 15 16 16 15 13 10 9 10 11 11 11 12 14 14 14 14 15 15 15 15 15 15 16 16 16 15 15 15 16 16 16 16 16 17 17 18 19
5 5 5 6 7 8 8 9 10 10 12 14 14 13 13 13 13 12 11 10 10 11 13 15 14 11 10 9 8 6 5 5 4 5 6 6 7 8 8 9 9 10 10 11 11 13 13 14 14 15 16 17 17 15 13 12 11 12 12 12 13 13 14 15 15 15 15 16 16 16 16 16 16 16 15 15 16 16 16 16 17 17 17 18 19 20
6 5 5 4 6 8 7 8 10 10 12 13 13 11 10 10 10 10 10 10 9 12 14 15 12 11 12 10 8 6 5 5 6 6 7 8 8 8 9 9 9 9 10 10 11 12 12 13 13 14 16 17 17 16 15 14 13 13 13 14 14 14 14 15 16 16 16 17 17 17 18 18 17 17 16 16 16 16 17 17 17 17 17 18 19 20
9 7 6 6 6 6 6 8 10 10 9 10 10 7 7 8 10 11 11 10 11 13 15 14 12 12 12 10 7 6 6 6 7 8 8 9 9 9 9 9 9 10 10 11 11 12 12 12 12 14 15 16 16 15 15 15 14 13 13 14 15 15 15 15 16 16 17 17 17 17 18 18 18 18 18 17 17 17 17 18 18 18 18 18 19 20
12 10 9 9 8 8 9 8 6 5 7 9 9 8 10 11 12 13 13 13 14 15 15 13 10 10 11 9 7 6 5 7 9 9 9 10 9 9 10 10 10 10 10 11 12 12 12 12 12 13 14 15 15 14 14 15 14 14 13 13 15 16 16 16 16 16 17 17 17 18 18 18 18 18 19 18 18 18 18 18 18 18 18 18 18 19
15 13 12 11 10 10 8 4 3 7 11 12 11 13 15 14 14 16 17 17 15 14 14 12 9 9 10 8 6 6 6 8 11 10 10 10 10 10 10 10 10 10 11 12 13 13 13 13 13 13 13 14 14 14 15 14 14 14 13 13 14 15 16 17 17 17 17 16 16 17 18 18 18 18 19 19 19 18 18 19 19 19 18 18 18 19
18 17 16 13 11 9 8 9 11 15 16 14 11 10 11 11 12 14 17 17 13 11 14 12 8 8 9 7 7 6 7 11 12 11 10 11 11 11 11 11 10 11 11 12 13 13 13 13 13 13 13 14 14 14 14 15 14 13 13 13 14 14 15 16 17 18 17 16 16 16 18 19 19 19 19 19 19 19 19 19 20 20 19 19 20 21
19 19 18 14 12 11 11 11 10 9 10 11 10 7 7 7 8 9 14 16 13 11 13 11 7 7 7 5 6 7 9 13 13 11 12 13 12 12 12 11 11 12 12 13 13 13 14 14 14 14 14 14 14 14 14 14 14 14 13 14 14 15 15 16 17 18 18 17 17 17 17 19 20 21 21 21 20 21 21 21 21 21 21 21 21 22
16 19 19 16 15 15 13 10 7 6 6 8 9 10 10 9 8 11 16 18 12 6 7 7 5 5 4 4 6 8 10 13 13 12 12 13 12 12 13 12 12 12 13 15 15 15 15 15 14 14 15 15 15 15 15 14 14 14 14 14 14 14 15 16 17 17 18 18 18 18 18 19 20 21 22 22 22 22 22 21 21 21 21 21 22 22
14 18 20 20 21 20 18 15 14 14 12 11 14 17 16 14 14 13 13 10 5 2 2 4 4 4 4 6 9 12 12 13 13 13 13 12 11 11 12 12 12 14 15 16 17 17 17 16 15 15 15 15 15 15 16 15 14 14 14 14 15 15 15 16 17 17 17 18 18 19 19 19 20 20 22 22 22 22 22 22 21 21 22 22 22 22
13 16 19 22 23 23 22 20 20 23 20 16 16 17 15 15 15 11 8 7 7 7 8 7 5 5 7 9 12 13 13 12 13 13 13 11 10 10 12 13 15 16 17 18 19 19 18 18 17 16 15 15 15 16 17 17 16 15 14 14 15 16 16 17 17 17 17 18 18 19 19 20 20 20 21 22 23 22 22 22 22 22 22 22 22 22
12 13 16 20 22 22 22 20 20 22 17 9 7 9 10 10 10 9 11 12 10 11 11 9 8 9 10 12 13 13 13 14 14 14 13 12 12 12 14 16 18 18 19 21 22 21 20 19 18 17 17 16 16 16 17 17 16 16 15 15 15 16 17 18 18 18 18 18 18 19 19 20 20 20 20 21 22 23 22 22 22 22 22 23 23 22
12 11 13 17 18 17 18 17 14 13 9 6 8 11 11 11 12 14 16 14 12 12 12 10 10 11 12 13 13 14 15 16 16 15 15 15 15 15 17 18 19 20 21 23 24 24 23 21 19 19 18 17 17 17 18 17 16 16 16 16 16 16 18 18 19 18 18 19 19 20 20 20 20 20 20 20 22 22 22 22 22 22 22 23 23 23
15 15 16 18 16 14 16 17 14 13 13 14 16 16 16 18 18 17 17 15 14 13 13 13 13 13 14 15 15 15 17 18 18 18 18 18 18 18 19 20 21 22 23 24 25 26 25 23 21 20 19 18 18 18 18 17 16 16 16 16 17 17 18 19 19 19 19 20 20 20 20 20 20 20 20 20 21 21 22 22 22 23 23 23 23 23
14 15 16 17 17 17 19 22 22 22 21 22 21 19 19 21 20 18 17 16 15 14 15 15 15 16 16 17 16 18 19 20 20 21 21 21 21 22 22 23 24 24 24 25 26 26 26 24 22 21 20 19 19 18 18 18 17 16 16 17 17 18 18 19 19 19 19 20 21 21 21 20 20 20 20 20 20 20 21 21 22 23 24 24 24 23
15 16 17 18 19 21 23 24 24 23 21 19 18 17 17 18 18 18 18 17 16 16 17 17 17 18 19 19 19 20 21 21 22 23 23 24 25 25 25 26 26 25 25 26 26 27 27 25 23 21 21 20 19 18 18 18 17 16 17 17 18 19 18 19 19 19 19 20 21 21 21 20 20 20 20 20 20 20 20 21 21 22 23 24 24 23
19 19 20 21 21 23 26 25 24 22 20 18 19 19 19 19 19 19 19 19 18 19 19 19 19 20 21 21 21 21 22 23 25 25 25 25 27 28 28 28 27 27 27 27 27 27 27 26 24 22 21 20 19 18 18 18 17 17 17 18 19 20 19 19 19 19 20 20 21 21 22 21 20 20 20 20 20 20 20 20 21 21 22 23 23 23
20 19 19 20 20 21 23 23 22 23 23 22 22 22 21 21 20 20 19 20 20 20 20 20 20 21 22 22 23 23 24 25 26 27 27 28 30 31 31 30 29 28 28 29 29 28 27 26 24 23 22 21 19 19 19 18 17 17 18 19 20 21 20 20 20 20 20 21 22 22 22 22 21 21 20 20 20 20 20 20 21 21 21 22 22 23
23 23 23 24 23 23 23 21 20 21 20 19 20 20 20 19 20 20 20 20 21 21 21 21 22 22 23 23 25 26 27 27 28 29 29 31 34 35 33 31 30 30 30 30 29 28 26 25 25 24 24 22 21 20 20 19 18 18 19 21 22 22 21 21 20 20 21 21 22 22 22 22 22 22 21 20 20 19 20 20 20 20 19 20 21 22
28 28 26 25 26 25 23 20 20 20 19 18 18 19 19 19 20 20 20 20 21 22 22 22 23 24 25 25 27 29 29 29 30 31 33 35 37 36 34 31 30 30 30 30 29 27 26 25 24 24 24 24 22 21 21 20 20 20 21 22 23 24 23 22 21 20 21 21 21 22 22 23 23 23 22 21 20 19 19 19 20 19 19 18 19 21
32 30 27 26 27 27 25 23 23 25 24 23 23 22 21 21 21 21 21 21 22 22 22 23 24 25 26 28 29 31 33 33 33 35 36 38 38 35 32 30 30 29 29 29 28 27 25 24 24 25 25 24 23 22 21 21 20 21 22 23 25 26 25 23 21 20 21 21 21 22 22 23 23 23 22 22 21 21 20 19 19 19 19 19 20 20
Wind_Direction
113 114 106 102 112 112 109 117 115 109 118 148 171 177 179 220 70 85 83 67 88 242 257 281 306 329 339 17 34 32 30 37 47 50 47 47 44 38 19 356 342 324 320 314 302 305 307 287 274 268 263 258 252 252 259 269 277 281 285 291 295 301 309 314 317 319 322 321 320 323 327 330 327 325 324 325 324 320 314 308 303 301 300 296 294 295
115 108 103 97 98 104 114 123 119 115 121 132 153 164 166 198 216 189 138 139 149 193 232 250 278 286 341 39 40 36 33 32 37 38 34 33 28 21 9 350 336 321 320 319 313 314 311 304 300 277 261 259 258 258 266 275 280 282 286 289 291 298 306 309 310 313 317 317 318 323 329 334 333 329 327 328 329 328 324 316 307 299 296 292 290 291
124 96 101 96 86 99 112 121 124 118 119 118 130 144 154 182 207 200 188 183 174 179 213 215 207 205 50 45 42 37 34 28 24 22 18 15 12 6 355 347 336 326 325 323 318 316 313 317 325 299 263 261 264 263 265 275 283 283 284 286 292 300 303 302 302 309 315 316 318 325 333 339 340 334 332 333 334 333 331 325 316 303 293 289 286 288
106 76 92 97 83 94 102 134 148 133 118 103 92 116 148 181 213 207 201 197 187 194 217 192 181 172 68 43 37 35 33 24 17 15 12 8 6 2 356 350 339 331 331 331 325 319 319 324 325 311 283 274 276 272 269 276 284 282 281 287 294 298 297 295 297 305 312 315 320 328 337 344 345 342 338 338 338 335 333 328 322 311 297 290 286 285
86 79 83 84 86 63 60 156 158 136 117 102 74 72 122 195 235 221 217 207 193 199 203 181 172 166 92 43 33 31 30 23 16 10 9 6 359 356 358 353 341 335 336 339 333 322 322 327 323 313 305 304 299 284 281 285 288 285 286 291 294 294 291 285 287 304 314 318 325 331 341 349 349 345 341 340 338 336 334 330 324 315 302 293 289 285
100 93 79 77 94 153 158 153 155 133 111 107 72 51 58 359 267 223 217 206 191 193 195 185 164 334 133 42 34 30 29 29 21 11 9 8 356 352 359 354 343 342 343 348 350 337 329 333 334 327 329 350 359 318 304 298 297 298 295 296 296 292 288 280 282 309 316 319 329 333 343 350 348 345 342 339 339 338 338 335 327 317 305 296 292 288
104 96 77 80 116 163 162 152 150 112 96 101 54 35 59 45 2 212 205 198 192 195 196 196 237 298 250 23 29 22 23 27 24 17 14 15 8 1 3 358 351 356 358 358 4 359 346 350 9 15 19 29 22 358 336 313 310 309 299 298 297 294 294 293 301 318 317 322 331 332 339 346 346 347 344 341 341 341 341 340 334 323 310 299 294 291
99 103 122 202 218 212 184 160 134 40 35 54 27 29 70 60 31 173 200 200 205 212 195 198 230 276 238 345 14 4 10 17 20 19 15 14 13 6 3 1 360 10 16 8 8 12 11 20 38 29 14 10 359 351 338 318 315 311 302 302 299 299 304 306 309 313 316 329 332 328 334 343 345 348 345 343 343 342 342 343 341 332 319 305 297 293
103 109 112 143 227 243 205 160 111 348 308 298 349 12 255 282 1 129 200 208 218 215 191 196 208 277 246 255 5 356 1 8 11 16 14 12 11 8 4 1 358 4 12 6 3 10 18 21 31 13 337 332 333 338 335 318 315 317 313 312 305 302 304 301 301 308 319 332 329 324 330 340 345 347 345 342 343 344 344 345 344 340 332 318 305 298
90 89 100 112 126 140 131 128 117 3 229 246 293 259 257 269 153 141 211 220 217 211 197 205 208 228 270 245 229 359 357 0 2 8 12 14 14 12 8 3 1 1 2 359 354 359 8 1 344 321 313 318 324 331 334 325 330 335 325 317 311 306 303 298 298 310 325 330 323 321 329 339 344 346 344 342 343 345 345 345 345 342 339 330 318 306
69 59 77 110 114 109 99 116 123 78 78 71 284 272 272 122 120 146 204 212 209 268 289 216 208 218 280 247 213 324 339 351 1 4 10 15 13 10 7 5 7 7 5 360 351 350 354 348 331 316 313 317 324 331 334 331 339 346 339 328 324 320 315 311 312 319 326 322 318 324 331 336 340 343 344 341 342 346 346 345 344 341 339 335 328 316
60 53 62 83 120 123 105 122 123 72 42 323 279 246 181 128 121 130 176 189 183 340 318 212 208 222 245 237 221 226 265 338 359 359 5 12 9 5 2 2 6 7 7 2 354 347 345 340 323 316 318 324 331 335 335 335 339 346 347 338 334 327 318 315 315 317 317 316 319 327 331 334 337 340 344 341 340 344 346 345 343 341 338 336 331 323
65 61 62 67 113 160 161 147 141 293 296 293 261 224 192 119 103 111 182 202 249 324 155 170 197 230 246 243 243 235 237 335 354 351 357 5 6 3 359 0 3 2 2 1 356 347 338 330 321 321 327 333 336 335 333 338 339 340 340 336 335 328 313 308 306 305 316 324 327 328 329 333 334 335 341 341 339 342 345 346 345 341 339 338 333 325
72 59 57 59 86 160 199 210 231 269 301 289 240 209 196 120 72 276 280 303 295 260 172 171 204 254 259 250 240 239 269 343 352 347 350 356 1 4 1 360 358 355 354 356 356 349 334 325 323 326 334 339 339 336 335 341 339 336 335 332 330 324 315 306 294 287 300 315 326 329 328 330 331 331 337 340 338 340 342 345 345 341 340 340 335 327
107 68 57 57 75 103 159 235 283 309 338 313 215 198 202 187 138 212 231 232 248 197 180 198 241 251 244 249 240 251 287 334 351 341 338 348 356 359 358 357 352 348 346 347 351 351 337 326 326 331 338 342 340 335 333 334 332 331 332 330 325 318 312 307 297 289 290 301 316 325 324 325 329 330 336 339 337 337 340 342 344 341 340 342 337 328
142 110 79 64 73 82 91 66 12 334 324 308 203 169 185 184 151 145 135 162 190 151 196 224 246 248 248 257 253 263 290 317 344 336 325 341 352 353 354 351 345 342 340 341 347 351 340 329 331 337 341 342 337 330 325 322 322 326 331 332 327 318 310 306 305 302 298 303 313 319 321 322 327 331 334 336 335 335 338 339 340 339 338 341 338 330
147 139 132 94 81 83 86 56 18 352 322 288 253 145 119 130 122 128 111 93 125 127 245 238 248 254 253 260 256 259 289 313 337 335 327 342 349 351 352 346 342 342 341 342 348 351 341 329 333 339 338 337 336 329 325 323 322 325 331 333 330 324 313 303 304 311 313 316 317 318 319 321 327 332 330 328 331 334 335 337 338 336 334 337 338 332
166 153 156 154 138 94 68 18 5 356 293 268 270 198 144 63 287 186 151 70 78 112 257 241 247 248 236 245 260 257 277 312 338 343 338 342 346 351 350 344 345 347 344 345 347 348 339 325 327 332 329 330 336 336 333 331 329 326 326 329 329 325 314 302 304 313 318 321 321 320 321 321 325 330 328 324 329 333 334 335 336 333 331 333 335 332
187 173 173 181 209 259 279 326 349 350 238 240 274 211 237 292 269 198 175 89 103 272 290 261 248 244 240 248 260 256 261 294 333 347 339 333 342 352 351 346 350 351 348 349 346 343 342 333 324 324 321 322 331 335 332 331 329 325 323 325 327 325 319 309 307 310 313 318 321 320 319 319 321 327 330 325 325 330 333 334 334 331 328 330 331 330
200 210 203 198 208 237 274 305 343 2 35 200 280 242 263 284 264 228 221 205 171 167 277 285 259 250 252 254 254 253 261 286 322 339 326 322 341 354 354 353 358 356 353 357 354 348 349 343 331 321 313 312 315 315 317 322 323 321 321 323 323 321 318 314 310 309 310 314 318 317 315 316 318 325 331 325 322 330 335 334 333 329 326 326 327 327
211 231 224 215 216 229 265 328 10 26 46 131 282 268 264 280 280 256 238 226 196 168 168 179 269 271 270 263 255 261 278 296 316 323 310 319 341 352 357 2 4 1 358 359 0 353 346 341 334 323 309 301 301 302 305 313 317 318 320 322 322 319 314 313 311 308 309 313 315 313 311 312 315 321 327 322 320 330 335 333 331 327 324 323 324 324
226 230 224 223 215 218 231 6 37 44 69 99 2 330 322 319 308 276 239 232 220 212 192 170 269 286 287 276 266 273 287 300 316 312 303 320 339 349 2 8 5 4 2 356 357 353 344 342 340 332 317 301 295 297 301 308 314 317 318 321 324 321 314 311 310 309 309 310 311 310 309 310 312 318 324 323 322 329 333 332 329 325 322 321 321 322
238 229 219 206 192 199 212 225 281 48 117 196 305 313 315 316 304 256 226 237 221 223 233 217 269 291 295 287 279 281 290 305 313 302 303 323 337 354 7 7 3 6 7 360 0 360 353 350 345 336 326 311 299 292 297 304 309 312 316 318 320 319 313 309 307 306 305 306 308 308 307 308 312 316 322 323 325 329 331 330 327 324 321 320 320 322
245 227 209 189 185 213 229 244 269 275 262 269 296 305 306 310 307 268 240 249 240 226 225 204 256 277 298 307 301 295 300 310 308 300 312 327 340 4 11 6 5 10 9 1 1 4 1 356 348 338 327 317 305 293 290 296 300 303 307 312 314 315 312 308 304 302 302 303 303 304 304 306 310 315 318 321 324 327 328 328 326 322 320 320 320 322
246 230 211 182 161 246 252 263 276 272 268 283 300 306 307 312 316 291 250 248 247 235 220 194 243 280 307 314 306 302 307 314 313 312 323 330 346 14 16 10 9 5 357 351 349 353 351 348 346 340 329 316 306 298 291 290 293 297 302 308 311 311 309 306 302 300 299 299 298 298 300 303 308 312 314 318 321 324 326 326 325 322 320 320 321 321
251 244 226 208 187 227 257 278 290 291 290 300 319 325 319 314 313 310 271 251 248 250 236 228 265 294 309 309 305 310 314 318 322 324 328 335 358 20 18 14 12 357 348 347 345 346 342 338 337 335 330 318 302 297 293 290 295 300 305 309 309 309 309 308 306 303 299 297 296 296 297 300 305 308 311 315 318 322 325 325 324 323 321 320 320 321
247 245 237 233 236 247 266 278 286 301 302 301 329 343 340 326 304 306 285 266 274 282 271 267 283 299 314 314 311 317 321 323 330 330 334 347 11 20 16 16 12 359 354 357 360 357 350 344 335 329 329 322 302 294 293 293 297 302 305 308 307 309 313 314 314 310 304 300 297 297 298 301 303 305 308 312 316 321 324 323 323 324 324 323 321 320
243 243 241 241 249 258 267 269 270 283 288 278 290 325 338 325 301 294 288 291 296 286 284 294 294 300 319 327 320 321 319 327 340 339 343 358 15 16 13 13 10 4 2 6 9 7 360 353 344 333 331 328 313 298 291 291 295 299 303 306 307 311 316 319 319 315 310 305 301 300 300 300 302 304 306 310 315 320 321 321 323 326 327 326 323 321
258 247 248 251 258 261 262 264 271 279 277 263 264 286 303 300 297 297 294 296 294 283 288 302 300 304 320 323 320 325 320 331 348 347 350 2 7 8 7 6 6 4 3 4 8 9 3 355 350 343 338 334 326 312 298 295 297 298 301 304 307 311 315 317 317 315 314 310 307 305 303 302 304 304 305 309 315 318 317 319 323 326 328 328 326 325
308 264 261 261 260 263 264 265 269 272 270 266 264 270 278 279 282 288 289 291 291 292 300 304 304 315 326 315 316 328 330 342 350 347 357 3 0 6 5 1 2 0 359 1 2 4 2 356 351 349 346 344 342 336 322 309 301 299 302 304 306 307 309 312 314 315 316 314 309 307 305 305 306 305 306 309 312 314 316 318 322 325 326 327 328 328
324 294 279 272 266 266 266 262 262 268 275 277 272 268 271 272 273 277 280 281 287 299 310 306 306 322 334 324 327 336 338 349 350 349 2 2 358 3 2 357 357 355 355 357 357 358 359 356 353 354 353 355 357 353 340 323 308 303 302 302 302 304 307 310 314 316 318 316 312 309 306 306 307 307 309 310 311 314 316 319 321 322 324 327 329 329
316 312 302 290 274 268 264 256 256 266 278 283 283 277 271 267 268 270 266 269 282 297 303 300 305 323 333 328 330 335 342 348 346 350 358 357 355 355 353 351 350 349 351 353 355 357 355 353 355 356 356 359 360 356 348 336 321 312 307 306 307 309 311 314 316 318 318 317 315 312 310 310 311 312 313 313 314 316 318 319 320 320 323 327 328 328
295 304 313 305 282 277 267 248 255 273 285 288 291 283 264 256 261 263 259 264 280 290 292 294 303 317 323 324 323 326 339 341 336 342 345 343 345 346 345 344 341 342 348 350 353 356 354 352 353 352 354 357 357 353 350 346 337 326 319 316 315 315 314 315 316 317 316 316 315 314 312 312 313 314 316 317 317 318 317 317 316 318 322 326 326 325
285 286 294 299 293 288 277 266 273 282 284 291 297 278 253 258 265 266 265 268 281 289 290 292 299 306 311 317 315 314 329 336 335 337 334 332 337 339 339 337 334 337 343 345 348 352 352 353 351 347 348 351 351 350 349 349 346 340 331 324 319 317 314 314 313 312 312 312 313 313 312 311 312 314 315 316 316 316 315 314 314 317 321 323 323 323
278 275 278 286 286 287 290 289 288 276 272 290 295 271 266 276 275 271 272 274 281 289 288 288 296 299 301 309 310 306 316 331 338 338 328 326 333 335 335 334 330 331 335 337 342 346 349 352 349 343 342 342 344 346 349 349 348 344 339 330 322 316 313 313 312 310 309 310 311 311 311 310 310 311 312 313 314 313 313 313 314 316 318 320 321 322
269 266 267 271 277 286 284 256 241 280 289 295 293 280 278 279 274 274 278 280 282 283 278 280 292 295 298 305 303 295 300 319 335 339 325 323 331 332 333 333 326 325 328 329 334 340 344 347 345 340 338 337 337 341 344 346 346 343 338 333 326 320 316 314 312 310 309 310 310 311 310 310 309 308 308 309 310 310 310 311 312 314 316 317 318 320
258 257 259 262 266 273 263 254 274 292 298 304 306 296 286 279 274 278 283 286 288 280 272 275 282 287 295 300 293 291 298 310 328 337 323 321 330 331 332 331 322 319 321 322 328 334 336 339 339 337 335 332 332 335 339 340 341 341 337 332 329 325 320 316 312 310 311 311 311 311 310 309 308 307 306 306 305 305 307 308 310 311 313 314 316 319
249 250 255 256 258 262 264 271 285 294 301 313 320 321 311 295 281 284 292 298 301 285 269 265 266 280 294 300 299 303 301 307 325 334 320 320 330 330 331 330 321 318 319 320 325 329 329 330 332 332 331 328 326 329 332 332 333 334 335 334 332 329 323 318 313 311 312 313 313 312 311 309 308 306 305 304 303 303 304 306 307 308 310 312 314 317
245 244 247 248 252 258 260 262 268 271 288 310 317 319 319 305 286 293 303 306 307 288 256 245 249 275 294 309 319 320 311 312 325 328 320 325 331 329 330 330 324 323 324 324 325 326 323 323 324 325 325 322 320 322 325 325 324 325 329 333 334 330 325 320 316 313 313 313 314 314 312 309 306 304 303 302 302 301 303 304 305 306 307 310 313 316
249 242 240 242 249 255 257 259 264 269 278 296 303 304 305 298 289 295 305 307 305 299 274 261 258 278 304 319 327 330 325 323 326 325 327 334 334 331 335 335 331 330 331 330 329 325 320 319 319 318 318 317 316 315 316 317 315 316 321 327 330 332 329 325 321 317 313 313 313 313 312 309 305 301 300 300 300 300 301 302 303 303 305 307 311 315
258 249 244 245 249 252 253 255 263 273 284 297 297 294 295 291 281 282 304 316 307 300 305 302 289 298 317 323 328 335 339 338 336 334 335 339 339 338 338 334 331 330 333 336 337 330 322 317 315 314 313 313 313 310 309 309 309 311 316 321 325 329 329 327 324 320 316 315 314 312 310 308 304 300 297 297 298 298 300 300 301 302 303 306 309 313
262 257 252 250 250 250 251 253 264 277 291 310 307 296 297 287 275 292 319 323 309 297 298 299 298 308 319 323 327 337 344 345 342 337 333 333 334 333 330 328 327 328 331 336 339 336 329 321 315 313 313 312 310 306 303 303 305 309 314 318 323 327 327 326 324 322 321 319 317 314 310 306 303 300 296 295 296 297 298 298 299 301 303 306 309 311
263 262 261 258 254 249 245 244 255 275 293 320 316 307 303 295 296 310 317 316 311 303 299 298 302 309 316 320 323 330 338 341 340 335 329 328 328 327 324 322 322 323 327 331 335 336 333 326 319 315 313 312 308 303 300 300 303 308 313 317 322 325 324 322 322 323 323 322 319 315 310 306 303 301 298 296 296 296 296 296 297 299 302 304 307 310
264 262 264 265 262 253 243 242 255 277 292 297 297 297 299 300 303 304 304 306 309 305 301 303 304 305 309 315 318 322 329 334 335 333 330 328 326 324 322 319 318 319 322 326 330 332 331 326 320 314 312 310 307 302 299 298 301 307 312 318 322 322 320 319 320 321 322 321 318 314 310 307 304 302 300 297 296 296 296 296 297 297 298 300 303 307
271 271 274 272 269 266 262 263 270 278 284 287 287 288 292 296 297 294 294 298 301 298 299 301 300 299 304 310 313 317 322 326 328 328 328 328 326 324 321 318 317 318 319 323 326 327 325 322 317 312 309 309 306 301 297 296 299 305 312 319 321 320 318 317 318 319 319 318 314 311 309 307 305 303 301 299 297 297 297 296 296 296 296 298 302 305
277 280 282 280 276 275 272 269 271 275 280 284 287 288 288 290 291 290 289 291 292 291 291 292 292 294 299 305 310 315 318 319 320 321 322 322 322 321 318 315 315 315 316 318 321 321 319 317 314 311 309 308 305 299 294 292 296 303 312 320 322 320 317 316 316 316 316 314 311 309 308 307 306 304 302 301 299 298 297 296 296 295 295 296 299 301
276 279 280 280 279 277 274 273 274 277 280 282 286 287 285 285 287 287 286 286 287 286 285 286 288 291 295 301 306 309 311 312 313 314 316 317 317 317 314 312 311 311 311 313 315 315 313 311 310 310 309 307 304 298 293 292 296 303 311 319 322 321 318 316 315 315 315 312 310 308 307 306 305 304 303 302 301 300 299 297 296 295 295 295 297 298
273 275 278 281 282 282 283 284 283 282 282 283 286 286 285 283 283 283 284 284 282 281 281 282 285 288 292 297 300 301 303 306 307 308 309 311 313 314 311 308 307 306 306 308 310 309 307 306 306 307 307 307 304 298 294 295 300 306 311 316 319 321 320 316 314 315 314 311 308 306 304 304 304 305 304 303 302 302 301 300 299 299 299 298 298 297
268 269 273 278 281 285 289 293 293 289 286 285 287 288 289 287 285 285 284 281 279 279 280 281 283 285 288 292 294 294 296 299 301 302 303 306 310 312 309 305 302 302 302 303 303 302 302 301 302 302 303 305 304 300 298 299 304 308 311 314 316 319 319 316 313 312 311 308 304 302 301 302 304 305 305 305 304 303 303 302 303 303 303 302 301 300
265 268 271 275 278 282 287 293 295 293 291 291 295 297 297 294 289 285 281 277 276 278 279 280 281 280 281 285 288 289 291 295 297 297 299 303 307 309 307 303 300 299 299 298 298 299 299 299 298 298 298 299 300 298 296 297 301 305 307 310 312 315 318 315 310 308 308 305 301 300 300 301 303 304 305 304 303 302 302 303 304 305 305 304 303 303
267 269 271 272 274 277 281 285 286 286 287 290 293 295 295 294 290 285 281 279 278 278 278 278 277 277 282 286 288 288 290 291 292 294 297 301 305 305 303 300 297 296 295 294 295 298 299 297 296 295 296 295 293 290 288 289 294 300 303 305 308 312 316 314 308 305 305 303 300 299 299 300 302 304 304 302 302 301 301 302 304 305 306 306 306 306
Height
3154 3154 3154 3154 3154 3154 3154 3155 3155 3155 3155 3156 3156 3156 3156 3156 3156 3157 3157 3158 3158 3158 3159 3159 3159 3159 3159 3159 3159 3158 3158 3158 3157 3157 3156 3156 3156 3156 3156 3156 3156 3155 3155 3153 3151 3152 3152 3151 3152 3152 3151 3150 3150 3150 3150 3150 3150 3150 3150 3150 3149 3148 3147 3146 3145 3144 3143 3141 3140 3138 3136 3135 3133 3131 3129 3128 3127 3126 3125 3124 3124 3123 3123 3122 3122 3122
3155 3155 3155 3155 3155 3155 3155 3155 3156 3156 3156 3156 3156 3156 3156 3157 3157 3157 3158 3158 3158 3159 3159 3159 3160 3160 3160 3159 3159 3158 3158 3157 3156 3156 3156 3156 3155 3155 3155 3155 3155 3154 3154 3153 3151 3150 3149 3148 3148 3148 3148 3148 3149 3149 3149 3149 3149 3149 3149 3149 3148 3147 3146 3145 3145 3144 3143 3141 3139 3137 3136 3134 3132 3130 3128 3127 3126 3125 3124 3123 3123 3122 3121 3121 3121 3121
3155 3155 3155 3156 3156 3156 3156 3156 3156 3157 3157 3157 3157 3157 3157 3157 3157 3158 3158 3158 3158 3159 3159 3160 3160 3160 3160 3159 3159 3158 3157 3156 3156 3155 3155 3155 3155 3154 3154 3153 3153 3153 3153 3152 3151 3150 3148 3148 3147 3146 3145 3146 3147 3148 3148 3148 3148 3149 3149 3149 3147 3146 3145 3144 3144 3143 3142 3140 3139 3137 3135 3133 3132 3130 3128 3126 3125 3124 3123 3122 3122 3121 3121 3120 3120 3120
3155 3155 3156 3156 3156 3156 3157 3157 3157 3157 3157 3157 3157 3158 3158 3157 3157 3157 3158 3158 3158 3159 3159 3159 3160 3160 3160 3159 3158 3157 3157 3156 3155 3155 3154 3154 3154 3153 3153 3152 3152 3151 3151 3151 3150 3149 3148 3148 3147 3146 3145 3145 3146 3147 3147 3147 3147 3147 3148 3147 3146 3145 3144 3143 3143 3142 3141 3140 3138 3136 3134 3133 3131 3129 3127 3125 3124 3123 3122 3121 3120 3120 3120 3119 3119 3119
3156 3156 3156 3156 3156 3157 3157 3157 3157 3158 3158 3158 3158 3158 3158 3158 3157 3157 3157 3158 3158 3159 3159 3160 3160 3160 3159 3159 3158 3157 3157 3156 3155 3155 3154 3154 3153 3152 3152 3151 3151 3150 3150 3150 3149 3148 3147 3147 3146 3146 3145 3145 3145 3146 3146 3145 3145 3146 3146 3145 3144 3144 3143 3142 3141 3141 3140 3139 3138 3136 3134 3132 3131 3129 3127 3125 3124 3122 3121 3120 3120 3119 3119 3118 3118 3118
3157 3157 3157 3157 3157 3157 3157 3157 3158 3158 3158 3158 3158 3158 3158 3158 3157 3157 3157 3157 3158 3159 3159 3160 3160 3159 3159 3159 3158 3158 3157 3157 3156 3155 3154 3153 3153 3152 3151 3151 3150 3149 3149 3149 3149 3148 3146 3146 3146 3145 3145 3145 3145 3145 3145 3144 3145 3145 3144 3143 3143 3143 3142 3141 3140 3139 3139 3138 3137 3136 3134 3132 3130 3129 3127 3125 3123 3122 3121 3120 3119 3118 3118 3117 3117 3117
3157 3158 3158 3158 3158 3158 3158 3158 3158 3158 3158 3158 3158 3158 3158 3158 3157 3157 3157 3157 3158 3159 3159 3160 3160 3160 3159 3159 3158 3158 3158 3158 3157 3156 3155 3154 3153 3152 3151 3150 3149 3149 3149 3148 3148 3147 3146 3145 3145 3145 3144 3145 3145 3144 3144 3144 3144 3143 3143 3142 3142 3142 3141 3141 3140 3139 3137 3137 3136 3135 3134 3132 3130 3128 3126 3124 3122 3121 3120 3119 3118 3118 3117 3116 3116 3116
3158 3158 3158 3158 3158 3158 3158 3158 3158 3158 3158 3158 3158 3158 3158 3158 3157 3157 3158 3158 3158 3159 3159 3160 3160 3160 3160 3159 3159 3158 3158 3158 3157 3156 3155 3154 3153 3152 3151 3150 3149 3149 3148 3148 3147 3147 3145 3145 3144 3144 3144 3144 3144 3144 3143 3143 3142 3142 3142 3141 3141 3141 3140 3140 3139 3138 3136 3135 3135 3135 3133 3132 3130 3128 3126 3124 3122 3121 3120 3119 3118 3117 3116 3115 3115 3115
3159 3159 3158 3158 3158 3158 3158 3158 3159 3158 3158 3158 3158 3158 3158 3158 3158 3158 3158 3159 3159 3159 3159 3160 3160 3160 3160 3160 3159 3158 3158 3158 3157 3156 3155 3154 3153 3152 3151 3150 3149 3148 3148 3147 3147 3146 3145 3145 3144 3144 3144 3144 3143 3143 3143 3142 3141 3141 3140 3140 3140 3139 3139 3139 3138 3137 3135 3134 3134 3134 3133 3131 3130 3128 3125 3123 3122 3120 3119 3118 3117 3116 3115 3115 3114 3114
3159 3159 3159 3158 3158 3158 3158 3158 3159 3159 3158 3158 3158 3158 3158 3158 3158 3158 3158 3159 3159 3159 3159 3160 3160 3160 3160 3160 3159 3159 3158 3158 3158 3157 3156 3155 3154 3152 3151 3150 3149 3148 3147 3147 3146 3145 3145 3145 3144 3144 3144 3143 3142 3142 3141 3140 3140 3139 3139 3139 3139 3138 3138 3138 3137 3135 3134 3133 3134 3133 3132 3131 3129 3127 3125 3123 3121 3120 3118 3117 3116 3116 3115 3114 3113 3113
3159 3159 3159 3158 3158 3158 3158 3159 3159 3159 3158 3158 3158 3158 3158 3158 3158 3158 3159 3159 3160 3160 3159 3159 3160 3161 3161 3159 3159 3159 3159 3158 3158 3157 3156 3155 3154 3153 3152 3150 3149 3148 3147 3146 3145 3145 3144 3144 3144 3143 3143 3142 3141 3140 3140 3139 3138 3138 3138 3137 3137 3137 3136 3136 3135 3133 3133 3133 3133 3132 3131 3130 3128 3127 3125 3123 3121 3119 3118 3117 3116 3115 3114 3113 3113 3112
3160 3159 3159 3158 3158 3159 3159 3159 3159 3159 3159 3159 3158 3158 3158 3158 3159 3159 3159 3159 3160 3160 3159 3159 3160 3161 3161 3159 3159 3159 3159 3158 3158 3157 3156 3155 3154 3153 3151 3150 3149 3148 3146 3145 3144 3144 3143 3143 3143 3142 3141 3141 3140 3139 3138 3138 3137 3136 3136 3136 3135 3135 3135 3134 3133 3132 3132 3133 3132 3131 3130 3129 3128 3126 3125 3123 3121 3119 3118 3116 3115 3114 3114 3113 3112 3111
3160 3160 3159 3158 3158 3159 3159 3159 3159 3159 3159 3159 3159 3158 3158 3159 3160 3160 3160 3161 3161 3160 3160 3160 3160 3160 3159 3159 3158 3158 3158 3158 3158 3157 3156 3155 3154 3153 3151 3150 3149 3147 3146 3145 3144 3143 3142 3142 3141 3140 3140 3139 3138 3138 3137 3136 3135 3134 3134 3134 3134 3133 3133 3133 3132 3132 3132 3132 3131 3130 3129 3128 3127 3126 3124 3123 3121 3119 3117 3116 3114 3113 3113 3112 3111 3110
3160 3160 3159 3159 3159 3159 3159 3159 3159 3159 3159 3158 3158 3158 3158 3159 3161 3162 3163 3163 3161 3160 3160 3160 3160 3159 3158 3158 3158 3158 3158 3158 3157 3156 3156 3155 3154 3153 3151 3150 3149 3147 3146 3145 3143 3142 3141 3141 3140 3139 3138 3137 3137 3136 3135 3134 3133 3133 3132 3132 3132 3132 3132 3132 3132 3132 3132 3131 3131 3130 3129 3127 3126 3125 3124 3122 3120 3118 3117 3115 3114 3113 3112 3111 3110 3109
3161 3160 3160 3160 3159 3159 3159 3159 3159 3159 3159 3158 3158 3157 3157 3158 3160 3161 3161 3161 3160 3160 3160 3160 3160 3159 3158 3157 3157 3157 3157 3157 3157 3156 3155 3154 3153 3152 3151 3150 3149 3147 3146 3144 3143 3142 3141 3140 3139 3138 3137 3136 3136 3135 3134 3134 3133 3133 3132 3132 3132 3131 3131 3131 3131 3131 3131 3130 3130 3129 3128 3127 3126 3125 3123 3122 3120 3118 3116 3115 3113 3112 3111 3110 3109 3108
3161 3161 3161 3160 3160 3160 3160 3159 3159 3159 3158 3158 3158 3157 3157 3158 3157 3158 3160 3159 3159 3160 3160 3160 3159 3158 3157 3157 3157 3157 3157 3156 3156 3155 3155 3154 3153 3152 3150 3149 3148 3147 3145 3144 3143 3142 3141 3140 3139 3138 3137 3136 3136 3135 3135 3134 3134 3134 3133 3132 3132 3131 3131 3131 3131 3130 3130 3129 3129 3128 3127 3126 3125 3124 3122 3121 3119 3117 3116 3114 3113 3111 3110 3109 3109 3107
3161 3161 3161 3161 3160 3160 3160 3160 3159 3159 3158 3158 3158 3158 3158 3158 3158 3158 3159 3159 3160 3161 3160 3159 3158 3157 3157 3156 3156 3156 3156 3155 3155 3154 3154 3153 3152 3151 3150 3149 3148 3146 3145 3143 3142 3141 3140 3140 3139 3138 3137 3136 3136 3135 3135 3135 3134 3134 3133 3133 3132 3131 3131 3130 3130 3129 3129 3128 3128 3127 3126 3125 3124 3123 3122 3121 3119 3117 3115 3114 3112 3111 3110 3109 3108 3107
3160 3160 3161 3161 3161 3161 3160 3160 3160 3159 3158 3158 3158 3158 3158 3158 3158 3158 3159 3160 3162 3162 3160 3158 3157 3157 3156 3156 3155 3155 3155 3155 3154 3154 3153 3152 3152 3151 3149 3148 3147 3146 3144 3142 3141 3140 3140 3139 3139 3138 3137 3136 3136 3135 3135 3134 3134 3133 3133 3132 3131 3131 3130 3130 3129 3129 3128 3127 3127 3126 3125 3124 3123 3122 3121 3120 3118 3117 3115 3113 3112 3110 3109 3108 3107 3106
3160 3160 3160 3161 3160 3161 3160 3160 3160 3159 3159 3158 3158 3158 3158 3158 3158 3158 3159 3160 3161 3162 3160 3158 3157 3156 3155 3154 3154 3154 3154 3154 3154 3153 3152 3152 3151 3150 3149 3148 3147 3145 3143 3142 3141 3140 3139 3139 3138 3138 3137 3136 3135 3135 3135 3134 3133 3133 3132 3131 3131 3130 3129 3129 3128 3128 3127 3126 3125 3125 3124 3123 3122 3122 3120 3119 3118 3116 3114 3113 3111 3110 3108 3107 3106 3105
3160 3160 3160 3160 3160 3160 3160 3160 3160 3159 3158 3158 3158 3158 3158 3158 3158 3158 3158 3158 3159 3161 3161 3158 3156 3155 3153 3153 3153 3153 3153 3153 3153 3152 3152 3151 3150 3149 3148 3147 3146 3144 3143 3142 3141 3140 3139 3138 3138 3137 3137 3136 3135 3135 3134 3134 3133 3132 3132 3131 3130 3129 3129 3128 3128 3127 3126 3125 3124 3124 3123 3122 3121 3120 3119 3118 3117 3115 3113 3112 3110 3109 3107 3106 3105 3104
3159 3159 3159 3160 3160 3160 3160 3160 3159 3159 3158 3158 3158 3158 3158 3158 3158 3158 3158 3157 3157 3159 3160 3159 3156 3152 3151 3152 3152 3152 3153 3152 3152 3152 3151 3151 3150 3149 3148 3146 3145 3144 3143 3142 3141 3140 3139 3138 3137 3137 3136 3136 3135 3134 3134 3133 3132 3132 3131 3130 3130 3129 3128 3127 3127 3126 3125 3125 3124 3123 3122 3121 3120 3119 3118 3117 3116 3114 3112 3111 3110 3108 3107 3105 3104 3103
3159 3159 3159 3159 3159 3159 3160 3159 3159 3159 3158 3159 3159 3159 3158 3158 3158 3157 3157 3157 3157 3157 3158 3158 3155 3151 3150 3151 3151 3151 3152 3151 3151 3151 3150 3150 3149 3148 3147 3145 3145 3143 3142 3142 3141 3140 3139 3138 3137 3136 3135 3135 3134 3133 3133 3132 3131 3131 3130 3130 3129 3128 3128 3127 3126 3125 3125 3124 3123 3122 3121 3120 3119 3118 3117 3116 3114 3113 3111 3110 3109 3107 3106 3104 3103 3102
3158 3158 3158 3159 3159 3159 3159 3159 3159 3159 3159 3159 3158 3158 3158 3157 3157 3157 3156 3156 3156 3156 3156 3157 3155 3151 3150 3150 3150 3151 3151 3150 3150 3150 3149 3149 3148 3147 3146 3145 3144 3143 3142 3142 3141 3140 3139 3138 3137 3136 3135 3134 3133 3132 3131 3131 3130 3130 3129 3129 3128 3127 3127 3126 3125 3124 3124 3123 3122 3121 3120 3119 3118 3117 3116 3115 3113 3112 3110 3109 3107 3106 3105 3103 3102 3101
3158 3158 3158 3158 3158 3158 3158 3158 3158 3158 3158 3158 3158 3157 3157 3156 3156 3155 3155 3155 3155 3155 3155 3156 3154 3150 3149 3150 3150 3150 3150 3149 3149 3148 3148 3148 3147 3146 3145 3144 3144 3143 3142 3141 3140 3140 3138 3137 3136 3135 3134 3133 3132 3131 3130 3130 3129 3129 3128 3127 3127 3126 3126 3125 3124 3123 3122 3122 3121 3120 3119 3118 3117 3116 3115 3114 3112 3111 3109 3108 3107 3105 3104 3102 3101 3100
3157 3157 3157 3158 3158 3158 3158 3158 3158 3157 3157 3157 3157 3156 3156 3155 3155 3154 3154 3154 3154 3154 3154 3155 3153 3149 3149 3149 3149 3149 3149 3148 3148 3148 3147 3147 3146 3145 3144 3144 3143 3142 3142 3141 3140 3139 3138 3136 3135 3134 3133 3132 3131 3130 3129 3129 3128 3127 3127 3126 3126 3125 3125 3124 3123 3122 3121 3120 3119 3118 3118 3117 3116 3115 3114 3113 3111 3110 3109 3107 3106 3104 3103 3101 3100 3099
3156 3156 3156 3157 3157 3158 3158 3157 3157 3156 3157 3156 3156 3156 3155 3154 3154 3154 3153 3153 3153 3153 3153 3153 3150 3148 3148 3148 3148 3148 3148 3147 3147 3147 3146 3146 3146 3145 3144 3143 3143 3142 3141 3140 3139 3138 3137 3135 3134 3133 3131 3130 3129 3128 3128 3127 3126 3126 3125 3125 3125 3124 3123 3122 3122 3121 3120 3119 3118 3117 3116 3116 3115 3114 3113 3111 3110 3109 3108 3106 3105 3104 3102 3101 3099 3098
3155 3156 3156 3156 3156 3156 3156 3156 3156 3156 3156 3155 3155 3155 3154 3154 3153 3153 3153 3153 3152 3152 3151 3150 3149 3147 3147 3147 3147 3147 3147 3147 3146 3146 3146 3145 3145 3144 3143 3143 3142 3141 3140 3139 3138 3137 3135 3134 3133 3131 3130 3128 3127 3126 3126 3125 3125 3125 3124 3124 3123 3123 3122 3121 3120 3119 3118 3117 3116 3116 3115 3114 3113 3112 3111 3110 3109 3108 3106 3105 3104 3103 3101 3100 3098 3097
3155 3155 3155 3155 3155 3156 3156 3155 3155 3155 3155 3155 3155 3154 3154 3153 3153 3153 3153 3152 3152 3151 3150 3149 3148 3147 3146 3146 3146 3146 3146 3146 3145 3145 3145 3144 3144 3143 3143 3142 3141 3140 3139 3138 3136 3135 3134 3133 3132 3130 3128 3127 3126 3125 3124 3124 3124 3123 3123 3123 3122 3121 3120 3120 3119 3118 3117 3116 3115 3114 3113 3113 3112 3111 3110 3109 3107 3106 3105 3104 3103 3101 3100 3099 3097 3096
3154 3155 3155 3155 3155 3155 3155 3155 3155 3154 3154 3154 3154 3153 3153 3153 3152 3152 3151 3151 3151 3150 3149 3148 3147 3146 3145 3145 3145 3145 3145 3144 3144 3144 3144 3143 3143 3142 3142 3141 3140 3139 3138 3137 3135 3134 3133 3132 3131 3129 3127 3126 3124 3123 3123 3123 3122 3122 3122 3121 3121 3120 3119 3118 3117 3116 3115 3114 3113 3113 3112 3111 3110 3109 3108 3107 3106 3105 3104 3102 3101 3100 3099 3097 3096 3095
3154 3154 3154 3154 3154 3154 3154 3154 3154 3153 3153 3153 3152 3152 3152 3151 3151 3151 3150 3150 3149 3148 3147 3147 3145 3144 3144 3144 3144 3143 3143 3143 3143 3143 3143 3142 3142 3141 3140 3140 3139 3138 3137 3136 3135 3133 3132 3131 3130 3128 3126 3125 3123 3122 3122 3122 3121 3121 3121 3120 3119 3119 3118 3117 3116 3115 3114 3113 3112 3111 3110 3110 3109 3108 3106 3105 3104 3103 3102 3101 3099 3098 3097 3096 3094 3093
3154 3154 3154 3154 3154 3154 3153 3153 3153 3153 3152 3151 3151 3151 3150 3150 3149 3149 3149 3148 3147 3147 3146 3145 3144 3143 3143 3143 3142 3142 3142 3142 3142 3142 3142 3141 3141 3140 3139 3139 3138 3137 3136 3135 3134 3133 3131 3130 3129 3127 3125 3124 3122 3121 3121 3120 3120 3120 3119 3119 3118 3117 3116 3115 3114 3113 3112 3111 3110 3110 3109 3108 3107 3106 3105 3103 3102 3101 3100 3099 3098 3097 3096 3094 3093 3092
3154 3154 3153 3153 3153 3153 3152 3152 3152 3152 3151 3150 3149 3149 3148 3148 3148 3147 3147 3147 3146 3145 3145 3144 3143 3143 3142 3142 3141 3141 3141 3141 3141 3141 3141 3140 3140 3139 3139 3138 3138 3137 3136 3134 3133 3132 3131 3129 3128 3126 3125 3123 3121 3121 3120 3119 3119 3118 3118 3117 3116 3116 3114 3114 3112 3112 3111 3110 3109 3108 3107 3106 3105 3104 3103 3102 3101 3100 3098 3097 3096 3095 3094 3093 3091 3090
3154 3154 3153 3153 3153 3152 3152 3152 3151 3151 3150 3148 3147 3147 3146 3146 3146 3146 3146 3145 3145 3144 3143 3143 3142 3142 3141 3141 3141 3141 3140 3140 3140 3140 3140 3139 3139 3138 3138 3137 3136 3135 3134 3133 3132 3131 3130 3128 3127 3125 3124 3123 3121 3120 3119 3118 3117 3117 3116 3115 3114 3114 3113 3112 3111 3110 3109 3108 3107 3107 3106 3105 3104 3102 3101 3100 3099 3098 3097 3096 3095 3094 3092 3091 3090 3089
3153 3153 3153 3153 3152 3152 3152 3151 3151 3151 3149 3147 3146 3146 3146 3145 3145 3145 3144 3144 3144 3143 3142 3141 3141 3141 3140 3140 3140 3140 3140 3139 3139 3139 3139 3138 3138 3137 3136 3136 3135 3134 3133 3132 3131 3130 3129 3128 3126 3125 3124 3122 3121 3120 3119 3117 3116 3116 3115 3114 3113 3112 3111 3111 3110 3109 3108 3107 3106 3105 3104 3103 3102 3101 3100 3098 3097 3096 3095 3094 3093 3092 3091 3090 3089 3087
3152 3152 3152 3152 3152 3151 3151 3151 3151 3149 3147 3145 3145 3145 3145 3145 3144 3143 3143 3143 3142 3141 3140 3140 3140 3139 3139 3139 3138 3138 3138 3138 3138 3138 3137 3137 3136 3136 3135 3134 3133 3132 3132 3131 3130 3129 3128 3126 3125 3124 3123 3122 3121 3119 3118 3116 3115 3114 3113 3112 3111 3110 3110 3109 3108 3108 3107 3106 3105 3104 3103 3101 3100 3099 3098 3097 3096 3095 3094 3093 3092 3090 3089 3088 3087 3086
3151 3151 3151 3151 3151 3150 3149 3150 3149 3146 3144 3145 3145 3144 3143 3143 3142 3142 3141 3140 3141 3140 3139 3139 3139 3138 3138 3137 3137 3137 3137 3137 3137 3137 3136 3136 3135 3134 3133 3132 3132 3131 3130 3130 3129 3128 3126 3125 3124 3123 3122 3121 3120 3118 3117 3115 3114 3113 3112 3111 3110 3109 3108 3107 3106 3106 3105 3104 3103 3102 3101 3100 3099 3097 3096 3095 3094 3093 3092 3091 3090 3089 3088 3087 3085 3084
3149 3149 3149 3150 3149 3149 3148 3148 3146 3144 3143 3143 3143 3142 3142 3141 3141 3140 3139 3138 3139 3138 3137 3137 3138 3137 3137 3136 3136 3136 3136 3136 3136 3136 3135 3134 3134 3133 3132 3131 3130 3130 3129 3128 3127 3126 3125 3124 3123 3122 3121 3120 3119 3117 3116 3114 3113 3112 3111 3110 3109 3108 3106 3105 3104 3104 3103 3102 3101 3100 3099 3097 3096 3095 3094 3093 3092 3091 3090 3089 3088 3087 3086 3085 3083 3082
3146 3147 3147 3148 3148 3147 3147 3147 3146 3145 3143 3142 3142 3141 3141 3140 3140 3139 3137 3136 3137 3136 3136 3136 3136 3136 3136 3135 3135 3135 3135 3135 3135 3135 3133 3133 3132 3131 3130 3129 3129 3128 3128 3127 3126 3125 3124 3123 3122 3120 3119 3118 3117 3116 3114 3113 3112 3111 3110 3108 3107 3106 3105 3104 3103 3102 3101 3100 3099 3098 3097 3095 3094 3093 3092 3091 3090 3089 3088 3087 3086 3085 3084 3082 3081 3080
3144 3144 3145 3146 3146 3145 3146 3146 3145 3144 3142 3141 3141 3141 3141 3140 3140 3139 3137 3135 3134 3134 3134 3135 3135 3135 3135 3135 3135 3135 3134 3134 3134 3133 3132 3131 3130 3129 3128 3128 3127 3127 3127 3126 3124 3123 3122 3121 3120 3119 3118 3117 3115 3114 3113 3112 3111 3110 3109 3107 3106 3104 3103 3102 3101 3100 3099 3098 3097 3096 3095 3093 3092 3091 3090 3089 3088 3087 3086 3085 3084 3082 3081 3080 3079 3078
3142 3142 3143 3143 3143 3143 3144 3144 3143 3141 3140 3140 3140 3140 3140 3140 3139 3139 3137 3135 3134 3134 3134 3135 3135 3135 3135 3134 3134 3134 3134 3133 3132 3131 3130 3130 3129 3128 3127 3127 3126 3126 3125 3124 3123 3122 3121 3120 3118 3117 3116 3115 3113 3112 3111 3110 3110 3108 3107 3106 3104 3103 3102 3100 3099 3098 3097 3096 3094 3093 3092 3091 3090 3089 3088 3087 3086 3085 3084 3083 3082 3080 3079 3078 3077 3076
3141 3141 3141 3141 3141 3141 3142 3142 3140 3138 3138 3139 3139 3139 3139 3138 3138 3138 3137 3135 3135 3134 3134 3134 3134 3134 3134 3134 3133 3133 3132 3131 3131 3130 3129 3128 3128 3127 3126 3126 3125 3124 3123 3122 3121 3119 3118 3117 3116 3115 3114 3113 3112 3110 3109 3109 3108 3107 3105 3104 3103 3101 3100 3099 3097 3096 3095 3094 3093 3091 3090 3089 3088 3087 3086 3085 3083 3083 3082 3081 3079 3078 3077 3076 3075 3074
3139 3139 3139 3139 3139 3139 3140 3140 3140 3137 3136 3137 3137 3137 3137 3137 3137 3136 3136 3135 3134 3134 3133 3133 3133 3133 3133 3132 3132 3132 3131 3130 3129 3129 3128 3127 3127 3126 3125 3125 3124 3123 3122 3120 3119 3117 3116 3115 3114 3113 3112 3111 3109 3108 3107 3106 3106 3104 3103 3102 3100 3099 3098 3096 3095 3094 3093 3091 3090 3089 3088 3087 3086 3085 3084 3082 3081 3080 3080 3079 3077 3076 3075 3074 3073 3072
3138 3137 3137 3137 3137 3137 3138 3139 3138 3136 3135 3135 3136 3136 3136 3136 3135 3135 3134 3134 3133 3133 3132 3132 3132 3131 3131 3131 3130 3130 3129 3129 3128 3127 3126 3126 3125 3124 3124 3123 3122 3121 3120 3118 3117 3115 3113 3112 3111 3110 3109 3108 3107 3106 3105 3104 3103 3102 3101 3099 3098 3097 3096 3094 3093 3092 3090 3089 3088 3087 3086 3085 3084 3082 3081 3080 3079 3078 3077 3076 3075 3074 3073 3072 3071 3070
3135 3135 3135 3135 3135 3135 3135 3135 3134 3134 3134 3134 3134 3134 3134 3134 3134 3133 3133 3132 3132 3131 3131 3131 3130 3130 3129 3129 3129 3128 3128 3127 3126 3125 3125 3124 3123 3122 3122 3121 3120 3119 3117 3116 3114 3113 3111 3110 3109 3108 3107 3106 3105 3104 3102 3102 3101 3100 3098 3097 3096 3095 3094 3092 3091 3089 3088 3087 3086 3085 3083 3082 3081 3080 3079 3078 3077 3076 3075 3074 3073 3072 3071 3070 3069 3068
3133 3133 3133 3133 3133 3132 3132 3131 3131 3132 3132 3132 3132 3132 3132 3132 3131 3131 3131 3131 3130 3130 3129 3129 3128 3128 3127 3127 3126 3126 3125 3125 3124 3123 3122 3121 3121 3120 3119 3118 3117 3116 3115 3113 3112 3110 3109 3108 3106 3105 3104 3103 3102 3101 3100 3099 3098 3097 3096 3095 3094 3093 3092 3090 3089 3087 3086 3085 3084 3082 3081 3080 3079 3078 3077 3076 3075 3074 3073 3072 3071 3070 3068 3067 3066 3065
3131 3131 3131 3131 3131 3130 3129 3129 3129 3130 3130 3130 3130 3130 3130 3129 3129 3129 3128 3128 3128 3128 3127 3127 3126 3125 3125 3124 3124 3123 3122 3122 3121 3120 3120 3119 3118 3117 3116 3115 3114 3113 3111 3110 3109 3108 3106 3105 3104 3103 3102 3101 3100 3098 3097 3096 3095 3094 3093 3092 3091 3090 3089 3088 3086 3085 3084 3083 3082 3080 3079 3078 3077 3075 3074 3073 3072 3071 3070 3069 3069 3068 3066 3065 3064 3063
3129 3129 3128 3128 3128 3127 3125 3126 3127 3128 3128 3128 3127 3127 3127 3127 3127 3126 3126 3126 3126 3125 3125 3124 3124 3123 3122 3122 3121 3120 3120 3119 3118 3117 3117 3116 3115 3114 3113 3112 3111 3110 3108 3107 3106 3105 3104 3102 3101 3100 3099 3098 3097 3096 3095 3093 3092 3091 3090 3090 3089 3088 3086 3085 3084 3083 3081 3080 3079 3078 3077 3076 3075 3073 3072 3071 3070 3069 3068 3067 3066 3065 3064 3063 3062 3061
3126 3126 3126 3125 3125 3125 3124 3124 3125 3125 3125 3125 3125 3124 3124 3124 3124 3124 3123 3123 3123 3122 3122 3122 3121 3121 3120 3119 3118 3117 3117 3117 3116 3115 3114 3113 3112 3111 3110 3109 3107 3106 3105 3104 3103 3102 3101 3099 3098 3097 3096 3095 3095 3093 3092 3091 3090 3089 3088 3087 3086 3085 3084 3083 3081 3080 3079 3078 3077 3076 3074 3073 3072 3071 3070 3069 3068 3066 3065 3064 3063 3063 3062 3061 3059 3058
3122 3123 3123 3123 3122 3122 3122 3123 3123 3122 3122 3123 3122 3121 3121 3121 3121 3121 3120 3120 3120 3120 3120 3119 3119 3118 3117 3117 3116 3115 3114 3114 3113 3112 3111 3110 3109 3108 3107 3105 3104 3103 3102 3101 3100 3099 3097 3096 3095 3094 3093 3092 3092 3090 3089 3088 3087 3086 3085 3084 3083 3082 3081 3080 3079 3078 3077 3075 3074 3073 3072 3071 3069 3068 3067 3066 3065 3064 3063 3062 3061 3060 3059 3058 3057 3055
3119 3119 3120 3120 3119 3120 3120 3121 3121 3119 3119 3120 3120 3119 3119 3118 3118 3118 3118 3118 3117 3117 3117 3117 3116 3115 3115 3114 3113 3112 3111 3111 3110 3109 3107 3106 3106 3105 3103 3102 3100 3099 3098 3098 3096 3095 3094 3093 3092 3091 3090 3089 3089 3087 3086 3085 3084 3083 3082 3081 3080 3079 3078 3077 3076 3075 3074 3073 3072 3071 3069 3068 3067 3066 3065 3064 3063 3062 3061 3060 3058 3057 3056 3055 3054 3053
3116 3116 3117 3117 3116 3117 3118 3119 3118 3117 3116 3117 3117 3116 3116 3116 3116 3115 3115 3115 3114 3114 3114 3113 3113 3112 3112 3111 3111 3109 3108 3107 3107 3105 3103 3102 3101 3100 3099 3098 3097 3096 3095 3094 3092 3091 3090 3089 3088 3087 3086 3086 3085 3084 3083 3082 3081 3080 3079 3078 3077 3076 3075 3074 3073 3072 3071 3070 3069 3068 3067 3066 3064 3063 3062 3061 3060 3059 3058 3057 3056 3055 3054 3053 3052 3050